Flag for Canada Weather past 2 weeks in Prince George, British Columbia, Canada

Now
59 °F

Partly sunny.


Feels Like: 58 °F
Forecast: 49 / 75 °F
Wind: 7 mph from North

Location: Prince George

Current Time: Jul 22, 2014 at 11:18:28 PM

Latest Report: Jul 22, 2014 at 10:00 PM


Visibility: 9 mi

Pressure: 29.98 "Hg

Humidity: 63%

Dew point: 46 °F

Location of Prince GeorgeLocation

Historic Weather in Prince George — Graph

°F

Prince George temperature yesterday

Maximum temperature yesterday: 70 °F (at 3:00 PM)
Minimum temperature yesterday: 48 °F (at 2:00 AM)
Average temperature yesterday: 60 °F

Past Weeks' High & Low Weather Summary

 TemperatureHumidityPressure
High91 °F (Jul 13, 5:00 PM)100% (Jul 19, 2:00 AM)30.19 "Hg (Jul 19, 2:00 AM)
Low41 °F (Jul 11, 5:00 AM)14% (Jul 12, 5:00 PM)29.71 "Hg (Jul 19, 12:00 PM)
Average65 °F56%29.96 "Hg
* Reported Jul 7 10:00 PM — Jul 22 10:00 PM, Prince George, Weather by CustomWeather, © 2014

Note: Actual official high and low records may vary slightly from our data, if they occured in-between our weather recording intervals... More about our weather records

Advertising

Prince George weather history for previous 24 hours

 ConditionsComfort  
Time TempWeatherWind HumidityBarometerVisibility
10:00 PM
Jul 22
59 °FPartly sunny.7 mph63%29.98 "Hg9 mi
9:00 PM66 °FPassing clouds.3 mph49%29.98 "Hg9 mi
8:00 PM72 °FPartly sunny.5 mph38%29.97 "Hg9 mi
7:00 PM72 °FSunny.7 mph33%29.97 "Hg9 mi
6:00 PM73 °FSunny.No wind27%29.98 "Hg9 mi
5:00 PM75 °FSunny.8 mph34%29.98 "Hg9 mi
4:00 PM77 °FSunny.7 mph32%29.99 "Hg9 mi
9:46 AM57 °FScattered clouds.3 mph88%30.03 "Hg9 mi
9:00 AM54 °FLow clouds.5 mph100%30.03 "Hg9 mi
8:00 AM54 °FLow clouds.8 mph100%30.02 "Hg9 mi
7:04 AM52 °FFog.8 mph100%30.00 "Hg6 mi
6:54 AM52 °FFog.8 mph100%30.00 "Hg3 mi
6:00 AM50 °FFog.8 mph100%29.98 "Hg0 mi
5:00 AM50 °FFog.5 mph94%29.96 "Hg0 mi
4:00 AM48 °FFog.2 mph100%29.95 "Hg0 mi
3:46 AM50 °FFog.No wind94%29.94 "Hg0 mi
3:00 AM52 °FFog.5 mph94%29.94 "Hg5 mi
2:57 AM52 °FFog.6 mph94%29.94 "Hg5 mi
2:00 AM54 °FClear.6 mph94%29.94 "Hg9 mi
1:00 AM54 °FPassing clouds.5 mph94%29.94 "Hg9 mi
12:04 AM55 °FMostly cloudy.7 mph94%29.94 "Hg9 mi
11:00 PM
Jul 21
55 °FLight rain. Mostly cloudy.7 mph94%29.96 "Hg9 mi
Weather by CustomWeather, © 2014

See weather overviewHow to use our weather pages